Theta_e
301 294 289 293 295 298 298 295 292 290 293 289 287 288 290 292 294 294 293 294 292 292 294 295 295 294 294 294 295 297 299 304 317 319 313 308 304 303 300 300 299 299 299 300
295 290 294 295 297 296 298 296 293 295 296 290 288 286 290 290 290 292 292 292 292 293 293 292 292 293 292 291 292 294 296 299 305 309 309 306 301 299 299 298 297 296 297 297
287 291 296 294 292 293 296 294 292 293 294 294 291 288 287 288 290 291 291 291 291 291 291 291 291 291 291 290 290 292 294 296 297 300 300 298 296 295 294 294 294 294 295 295
290 293 293 292 291 293 289 297 297 295 293 286 293 281 290 287 286 288 289 289 289 289 289 289 290 290 290 289 290 291 291 293 294 295 294 292 291 290 291 292 293 293 293 293
286 289 290 289 291 294 291 298 298 296 293 290 287 286 289 287 284 286 287 289 289 289 289 288 288 289 289 290 289 290 290 290 291 291 292 291 290 291 290 290 290 291 291 291
288 291 292 292 294 295 297 295 293 293 291 284 288 287 285 286 288 288 289 290 290 290 290 290 290 290 289 290 290 290 289 289 289 289 289 289 287 287 287 287 287 288 288 289
288 287 289 292 291 295 295 291 283 282 282 282 287 288 287 291 293 290 288 288 289 290 289 289 288 288 289 288 289 290 289 287 287 287 287 287 286 286 285 285 285 285 286 286
282 279 288 291 291 290 291 291 282 276 278 281 288 285 286 285 292 291 290 289 289 288 289 288 288 287 287 287 287 287 287 286 286 285 285 285 286 285 285 284 284 284 285 286
281 281 287 289 292 293 290 288 289 282 277 279 285 284 284 285 287 289 289 288 288 288 288 287 287 286 286 286 286 286 286 286 285 285 284 283 283 283 282 283 283 283 284 286
287 279 286 287 291 292 292 293 285 284 276 276 279 279 282 281 283 286 287 287 288 288 286 286 285 285 285 285 285 285 285 284 284 284 283 282 282 282 282 282 281 281 282 284
290 284 283 286 285 285 288 288 287 286 283 278 275 278 283 284 285 286 287 287 287 286 285 284 285 284 284 283 283 283 283 284 283 283 282 281 281 281 281 281 281 281 281 282
290 286 274 282 284 286 288 287 288 283 278 280 279 278 283 285 287 288 286 287 287 287 286 285 285 284 283 283 283 282 282 282 282 282 281 280 280 280 280 280 280 281 280 281
289 284 277 280 283 286 285 287 289 287 285 281 279 280 283 285 285 287 286 286 287 286 285 284 284 283 283 283 282 282 282 282 282 281 280 280 279 279 279 279 279 280 280 279
290 283 279 275 279 281 282 283 286 286 282 280 282 281 281 283 284 285 286 287 286 285 285 284 284 284 283 283 282 281 281 281 281 280 279 279 278 278 278 279 279 279 279 278
287 275 281 280 281 283 282 282 283 284 282 281 282 281 283 283 284 285 286 286 285 284 284 285 284 284 283 282 282 281 281 281 280 279 279 278 278 278 278 279 278 278 278 278
286 270 278 278 281 282 283 284 283 283 282 279 280 280 282 283 282 283 285 286 285 284 285 285 285 285 283 283 282 281 280 280 280 279 278 278 278 278 278 278 278 277 277 276
282 277 278 275 277 277 279 281 283 283 281 281 279 282 280 280 282 283 284 286 285 285 285 285 285 285 284 283 282 280 280 280 279 279 278 278 277 277 278 277 277 276 275 275
280 277 274 273 277 271 277 276 276 281 282 282 282 281 281 281 281 282 284 285 284 284 284 284 284 284 283 282 280 279 279 278 278 278 277 276 276 276 277 276 276 274 274 273
283 279 271 273 267 273 276 277 278 280 280 283 283 280 280 280 281 278 282 284 285 284 284 284 283 283 281 280 279 278 277 277 276 276 276 276 275 275 275 275 274 273 273 273
278 278 276 261 266 267 275 276 278 280 276 282 283 279 279 281 277 279 282 283 283 283 283 282 282 281 279 279 277 277 276 275 275 275 275 275 275 275 274 274 273 272 272 273
267 265 266 261 262 269 275 277 278 274 278 280 282 280 279 280 282 282 282 282 282 282 282 281 280 280 279 278 276 275 275 274 275 275 275 274 274 273 273 272 270 270 270 271
268 267 263 258 262 267 276 277 278 281 279 279 280 280 281 280 279 281 281 281 281 281 281 280 279 279 278 277 275 275 274 275 275 274 273 272 270 271 272 267 268 267 266 265
267 272 268 271 272 278 278 278 279 280 279 279 280 280 280 280 279 280 280 280 281 280 281 280 278 278 277 276 274 274 275 274 273 270 269 268 268 269 269 265 266 265 264 264
272 274 271 272 275 276 279 279 279 279 279 280 281 280 280 280 280 280 280 280 280 279 279 277 275 274 276 273 274 274 273 272 269 268 269 268 267 267 266 268 268 265 264 264
273 274 271 271 276 276 278 279 280 281 281 280 279 280 281 280 280 279 279 279 279 279 278 276 275 275 275 271 272 270 271 270 269 269 268 268 268 266 266 267 266 267 267 267
274 274 272 271 276 277 277 278 280 280 280 280 280 278 278 279 279 279 278 278 278 278 276 273 273 271 273 269 271 269 268 269 268 268 268 268 267 265 265 265 264 270 273 274
Wind_Speed
2 4 13 13 6 9 10 5 1 2 2 8 6 9 5 5 8 8 4 5 6 6 5 8 9 9 9 12 12 12 10 11 6 7 7 6 7 7 9 9 13 12 11 12
3 13 2 1 2 2 13 10 1 4 7 7 6 7 5 4 4 4 4 4 5 4 6 8 9 10 11 9 10 12 12 12 10 5 6 5 6 8 7 7 10 11 12 11
5 3 7 5 3 8 12 17 14 3 4 10 9 3 3 3 4 4 4 3 4 5 5 7 9 9 9 12 10 11 11 12 12 10 8 6 5 4 5 7 7 10 11 11
6 5 4 4 10 7 14 7 20 13 7 4 1 3 5 5 5 5 6 5 6 6 4 5 7 8 9 8 8 11 12 13 12 11 11 12 7 5 4 4 5 7 10 11
5 5 9 7 10 5 5 7 17 18 16 7 7 1 2 11 8 8 8 7 6 6 5 5 6 7 7 8 8 9 11 13 12 12 10 8 9 5 4 3 5 7 7 10
3 1 5 9 6 8 5 7 8 4 3 7 10 9 6 10 17 10 10 10 11 9 8 7 6 7 8 7 8 9 11 12 11 11 10 10 9 7 5 6 5 5 5 6
4 4 2 3 7 5 6 6 4 5 5 4 2 9 6 7 9 12 15 12 9 10 10 10 8 7 7 7 7 7 10 10 9 10 10 9 9 8 7 5 4 5 5 4
6 4 9 5 6 6 17 12 5 8 7 7 5 8 4 3 5 14 15 11 8 8 8 8 7 8 6 6 7 6 7 8 7 8 8 7 7 5 5 5 4 4 4 4
6 4 2 2 2 3 7 11 4 6 1 4 4 3 2 3 8 14 16 15 12 10 9 8 8 8 6 6 5 5 7 7 7 6 6 6 5 6 5 5 4 4 4 4
3 3 1 2 2 4 3 6 3 2 6 4 2 5 6 6 11 13 15 16 14 11 9 8 7 6 5 5 4 5 5 6 5 5 5 5 5 5 5 5 5 5 4 5
4 2 1 3 5 7 3 3 4 3 2 4 3 7 3 15 17 19 17 13 14 13 10 9 7 6 6 5 5 5 5 5 5 4 5 5 4 5 4 4 4 4 4 4
4 2 3 6 4 2 3 5 4 3 3 1 1 5 3 3 8 11 12 13 11 11 11 10 8 7 6 5 5 5 4 5 4 4 4 4 4 4 4 5 4 4 4 4
5 4 3 1 2 5 4 4 5 5 3 2 3 6 5 7 11 11 14 13 12 11 10 8 7 6 6 5 5 4 4 4 3 3 4 3 4 4 4 4 4 4 4 4
2 1 3 5 1 3 5 6 7 6 3 6 5 5 1 6 11 12 14 14 13 12 12 10 7 7 6 5 5 5 4 3 3 3 3 3 3 3 3 3 3 3 3 4
1 3 2 1 4 1 2 8 10 8 6 8 8 9 6 15 14 12 10 12 13 12 11 11 9 7 6 6 5 5 5 5 4 3 3 2 2 1 1 2 2 3 4 4
1 2 2 1 4 3 3 6 9 6 4 2 3 6 3 7 8 10 15 16 16 15 13 11 9 8 7 7 6 5 5 5 3 3 3 1 0 1 0 1 2 3 3 4
0 3 2 3 0 2 2 7 6 5 4 8 6 7 6 5 12 16 16 17 15 13 13 12 12 9 7 7 6 7 6 5 4 3 2 2 2 3 3 2 2 2 3 3
1 2 2 2 2 1 3 1 1 2 2 3 2 2 4 2 3 6 9 14 11 11 11 9 7 6 7 5 5 4 4 4 4 4 4 4 4 4 3 3 3 2 2 3
1 3 2 4 1 4 2 3 5 4 4 7 5 4 4 5 5 2 6 8 13 11 9 8 7 5 5 7 6 6 5 4 4 5 5 5 4 4 4 4 3 2 2 3
5 3 2 4 5 4 3 1 2 1 5 7 7 7 8 6 4 6 9 7 7 8 7 8 7 5 6 6 6 6 6 5 6 6 5 5 5 5 5 4 3 1 2 4
4 4 4 2 1 7 5 2 1 7 6 4 5 7 10 6 5 5 9 6 6 6 8 7 6 7 7 6 6 5 5 8 6 5 5 5 5 4 4 2 2 2 3 3
2 4 1 2 5 6 5 3 6 4 1 1 5 5 6 4 3 6 9 8 8 8 7 7 7 7 4 5 6 6 8 5 5 5 5 4 3 3 2 3 3 3 2 3
3 5 4 8 7 3 5 3 0 2 2 3 4 5 8 6 4 7 7 8 8 8 7 5 6 6 5 6 6 7 6 6 5 3 5 4 3 4 3 4 4 2 3 2
4 4 3 3 3 7 7 4 4 2 2 1 3 6 7 6 7 6 7 7 7 6 6 5 5 5 7 6 6 9 4 4 4 6 6 4 5 4 4 3 3 3 2 3
4 5 3 7 8 5 10 8 6 6 4 3 3 7 9 9 8 6 7 7 6 6 4 5 7 6 8 5 7 6 6 6 6 6 4 5 4 5 3 4 4 4 4 5
8 9 7 8 8 4 5 4 8 9 8 7 6 4 3 6 8 7 7 6 5 6 4 4 5 5 8 5 7 5 6 6 6 5 4 5 4 4 4 3 3 8 10 10
Wind_Direction
197 183 205 193 217 213 200 155 10 69 126 75 71 96 70 97 84 105 84 78 79 45 354 34 27 24 23 21 20 24 28 19 56 99 89 76 68 61 53 49 40 33 33 34
163 227 202 155 190 195 175 187 340 94 26 86 106 79 78 52 80 99 139 123 90 86 45 35 32 28 35 29 26 23 29 29 43 54 80 83 90 67 63 49 47 35 32 32
186 175 177 185 185 188 196 191 176 197 83 50 121 96 160 81 102 113 88 98 72 89 86 57 51 35 37 36 24 37 37 44 46 47 78 73 65 59 36 32 39 36 32 29
228 247 163 165 224 196 210 189 185 163 162 180 324 201 206 177 179 165 159 155 134 115 83 63 63 56 42 30 36 45 47 50 47 52 68 69 73 79 36 30 34 41 35 32
222 183 184 204 212 196 230 151 162 177 187 140 189 264 259 158 205 206 192 168 149 125 107 81 66 64 48 44 44 50 53 52 49 52 58 76 79 71 65 33 38 36 38 31
258 257 193 190 175 197 134 97 50 69 160 207 173 186 211 191 195 175 168 171 156 140 121 101 83 76 61 53 54 56 62 54 46 53 54 64 72 69 60 41 36 29 30 31
195 243 251 180 137 145 183 159 143 198 215 227 202 201 245 200 180 168 162 168 167 150 142 133 113 89 71 55 52 71 66 62 52 55 54 49 59 62 59 45 37 31 32 28
181 204 170 200 199 181 196 199 153 186 184 188 147 226 220 253 280 141 151 154 138 142 136 122 120 100 93 81 62 65 69 69 62 60 56 50 52 59 53 47 42 36 31 39
186 265 325 191 151 143 189 200 137 110 56 91 195 308 240 99 112 145 149 152 157 151 132 134 122 108 106 86 80 82 85 76 65 69 71 58 56 61 57 47 38 39 25 34
128 273 210 138 140 28 168 143 125 24 161 189 249 283 233 194 163 157 162 164 156 143 138 134 118 115 97 99 94 79 79 86 82 70 65 65 57 55 52 42 42 34 27 21
157 177 257 96 206 174 119 151 91 86 150 165 156 248 226 188 182 177 172 161 152 146 153 141 131 136 129 123 110 100 90 88 75 71 71 65 55 55 56 53 44 35 35 27
177 202 210 211 290 301 128 147 142 169 207 119 69 281 341 222 177 168 154 147 148 148 153 149 147 151 153 148 137 128 109 101 106 100 93 80 74 69 62 46 32 26 38 30
163 225 120 339 126 358 151 162 131 86 85 157 150 259 348 125 142 157 152 155 155 151 145 143 147 170 170 166 158 149 141 137 125 119 113 79 62 58 53 50 36 29 24 21
324 175 151 201 75 134 149 153 162 141 127 149 228 296 354 156 172 169 165 160 157 158 162 162 163 179 180 173 170 164 158 152 153 135 99 76 54 51 45 40 38 30 16 14
258 166 110 21 320 155 142 160 167 175 177 170 210 203 224 197 183 170 149 148 154 163 166 175 178 185 183 175 177 174 177 175 166 147 121 98 65 67 72 44 21 4 8 6
75 299 88 60 335 290 150 189 175 176 141 93 112 242 199 137 123 156 170 170 171 174 178 177 184 184 186 184 187 190 191 189 168 173 187 161 62 300 306 313 345 355 353 346
286 145 128 207 351 23 203 205 186 155 175 148 165 222 143 152 174 182 178 177 174 175 174 182 190 189 181 189 183 195 193 175 184 199 211 225 244 265 257 285 301 321 325 323
108 71 26 149 211 158 247 70 317 115 152 171 107 166 157 182 62 140 166 163 168 172 176 188 178 171 183 174 179 166 171 182 201 223 231 231 235 250 249 249 259 306 322 331
66 102 160 149 146 290 24 189 176 151 246 188 165 139 133 128 86 62 174 184 178 175 181 182 161 160 165 180 184 178 183 200 214 234 235 232 224 244 254 259 267 279 293 308
80 347 179 45 108 183 250 255 262 245 315 188 156 166 155 147 132 233 171 154 168 174 156 151 154 148 165 196 175 183 211 215 234 240 242 230 217 223 234 244 263 211 264 286
345 356 93 111 147 285 248 228 277 91 242 158 175 166 164 184 199 162 145 145 147 147 154 143 158 181 200 174 168 209 222 236 234 238 232 218 218 223 234 235 182 214 254 272
175 113 209 86 55 304 171 87 161 213 305 234 183 184 181 122 101 140 139 138 143 146 148 166 177 210 195 176 174 216 232 231 226 225 226 220 193 207 195 189 231 240 241 252
317 181 190 177 214 247 220 229 333 146 216 237 193 169 156 138 162 141 142 150 163 168 178 177 195 218 214 201 189 220 239 207 218 177 222 222 198 209 201 202 224 228 227 242
246 185 200 42 223 236 247 244 227 256 251 225 192 159 150 145 155 154 153 164 174 182 193 187 184 223 240 211 205 224 197 190 172 215 224 203 207 222 219 224 209 210 223 241
205 118 188 267 276 299 259 225 210 212 227 172 156 170 178 160 178 162 168 177 193 203 199 182 201 220 238 204 230 212 207 186 213 220 207 216 208 210 216 221 207 226 213 208
184 187 174 222 217 183 240 232 183 190 197 191 160 138 145 164 171 164 191 196 193 213 203 206 220 224 245 221 248 224 209 189 206 226 215 218 208 201 211 211 262 259 268 271